Location: La Comballaz
(46.3780°N, 7.0817°E)
Time: 21:09:11
(UTC+00:00)

AO-7 - Pass Details

Date: 14 December 2022
Orbit: 1440 x 1458 km, 101.9° (Epoch: 07 February)

Event Time Altitude Azimuth Distance (km) Brightness Sun altitude
Rises 05:13:23 0° 16° (NNE) 4,548 ? -18.7°
Reaches altitude 10° 05:16:12 10° 13° (NNE) 3,568 ? -18.2°
Maximum altitude 05:24:18 59° 297° (WNW) 1,638 ? -16.9°
Drops below altitude 10° 05:32:23 10° 221° (SW) 3,563 ? -15.6°
Sets 05:35:12 0° 218° (SW) 4,541 ? -15.1°
